Swansboro, NC

1:03 AM EDT on September 28, 2016 (GMT -0400)
Bogue McAlf

Weather History for KNJM - July, 2013

Change the Weather History Date:

Monday, July 29, 2013

  Actual Average (KNKT) Record (KNKT)
Temperature  
Mean Temperature 80 °F -  
Max Temperature 87 °F 84 °F 102 °F (2011)
Min Temperature 75 °F 69 °F 69 °F (2007)
Cooling Degree Days 16    
Growing Degree Days 30 (Base 50)    
Moisture  
Dew Point 74 °F    
Average Humidity 80    
Maximum Humidity 89    
Minimum Humidity 66    
Precipitation  
Precipitation 0.01 in - - ()
Sea Level Pressure  
Sea Level Pressure 30.09 in    
Wind  
Wind Speed 6 mph (SW)    
Max Wind Speed 15 mph    
Max Gust Speed 18 mph    
Visibility 8 miles    
Events Rain , Thunderstorm    
Averages and records for this station are not official NWS values.
T = Trace of Precipitation, MM = Missing Value Source: NWS Daily Summary

Daily Weather History Graph

Daily Weather History Graph

Search for Another Location

Airport or City:

Trip Planner

Search our weather history database for the weather conditions in past years. The results will help you decide how hot, cold, wet, or windy it might be!

Date:

Astronomy

Jul. 29, 2013 Rise Set
Actual Time 6:16 AM EDT 8:12 PM EDT
Civil Twilight 5:48 AM EDT 8:40 PM EDT
Nautical Twilight 5:14 AM EDT 9:14 PM EDT
Astronomical Twilight 4:38 AM EDT 9:50 PM EDT
Moon No Moon Rise 1:34 PM EDT (7/29)
Length of Visible Light 14h 52m
Length of Day
13h 56m
Waning Gibbous, 51% of the Moon is Illuminated
Jul 29
Waning Gibbous
Jul 29
Last Quarter
Aug 6
New
Aug 14
First Quarter
Aug 20
Full

Hourly Weather History & Observations

Time (EDT) Temp. Heat Index Dew Point Humidity Pressure Visibility Wind Dir Wind Speed Gust Speed Precip Events Conditions
12:57 AM 80.1 °F 84.2 °F 73.0 °F 79% 30.06 in 10.0 mi SW 5.8 mph - N/A   Clear
1:57 AM 79.0 °F - 73.9 °F 84% 30.05 in 10.0 mi SW 6.9 mph - N/A   Clear
2:36 AM 78.8 °F - 73.4 °F 83% 30.04 in 9.0 mi SSW 10.4 mph - N/A   Mostly Cloudy
2:57 AM 80.1 °F 84.5 °F 73.9 °F 81% 30.05 in 10.0 mi SW 8.1 mph - N/A   Mostly Cloudy
3:57 AM 79.0 °F - 75.0 °F 88% 30.04 in 9.0 mi SW 6.9 mph - N/A   Mostly Cloudy
4:12 AM 78.8 °F - 75.2 °F 89% 30.03 in 9.0 mi SW 5.8 mph - N/A   Partly Cloudy
4:57 AM 79.0 °F - 73.9 °F 84% 30.05 in 9.0 mi Calm Calm - N/A   Clear
5:57 AM 79.0 °F - 73.9 °F 84% 30.06 in 9.0 mi Calm Calm - N/A   Mostly Cloudy
6:09 AM 78.8 °F - 73.4 °F 83% 30.05 in 9.0 mi WSW 4.6 mph - N/A   Mostly Cloudy
6:57 AM 79.0 °F - 73.9 °F 84% 30.06 in 8.0 mi Variable 3.5 mph - N/A   Mostly Cloudy
7:16 AM 78.8 °F - 73.4 °F 83% 30.06 in 8.0 mi West 3.5 mph - N/A   Overcast
7:29 AM 78.8 °F - 73.4 °F 83% 30.07 in 8.0 mi Variable 4.6 mph - N/A   Overcast
7:57 AM 80.1 °F 84.5 °F 73.9 °F 81% 30.09 in 7.0 mi WSW 4.6 mph - N/A   Overcast
8:14 AM 80.6 °F 85.4 °F 73.4 °F 79% 30.08 in 8.0 mi WSW 5.8 mph - N/A   Overcast
8:35 AM 80.6 °F 85.4 °F 73.4 °F 79% 30.08 in 8.0 mi WSW 6.9 mph - N/A   Mostly Cloudy
8:57 AM 81.0 °F 85.8 °F 73.0 °F 77% 30.10 in 8.0 mi SW 6.9 mph - N/A   Scattered Clouds
9:57 AM 82.9 °F 89.4 °F 73.9 °F 74% 30.10 in 8.0 mi SW 9.2 mph - N/A   Scattered Clouds
10:20 AM 84.2 °F 90.9 °F 73.4 °F 70% 30.09 in 9.0 mi WNW 5.8 mph - N/A   Mostly Cloudy
10:35 AM 84.2 °F 89.6 °F 71.6 °F 66% 30.10 in 9.0 mi West 6.9 mph - N/A   Mostly Cloudy
10:57 AM 82.9 °F 88.0 °F 72.0 °F 69% 30.12 in 7.0 mi WNW 3.5 mph - N/A   Scattered Clouds
11:57 AM 84.0 °F 92.6 °F 75.9 °F 76% 30.12 in 7.0 mi SSW 9.2 mph - N/A   Mostly Cloudy
12:57 PM 86.0 °F 95.1 °F 75.0 °F 70% 30.10 in 8.0 mi South 10.4 mph - N/A   Mostly Cloudy
1:39 PM 82.4 °F 89.5 °F 75.2 °F 79% 30.07 in 7.0 mi SSW 13.8 mph - 0.00 in Rain , Thunderstorm Light Thunderstorms and Rain
1:57 PM 86.0 °F 96.0 °F 75.9 °F 72% 30.09 in 9.0 mi SSW 12.7 mph - 0.00 in Thunderstorm Thunderstorm
2:16 PM 84.2 °F 90.9 °F 73.4 °F 70% 30.08 in 9.0 mi SSW 13.8 mph - N/A   Mostly Cloudy
2:25 PM 82.4 °F 89.5 °F 75.2 °F 79% 30.09 in 8.0 mi SSW 15.0 mph - N/A Thunderstorm Thunderstorm
2:57 PM 82.0 °F 88.6 °F 75.0 °F 79% 30.09 in 7.0 mi SSW 9.2 mph - N/A   Mostly Cloudy
2:59 PM 82.4 °F 89.5 °F 75.2 °F 79% 30.07 in 7.0 mi SSW 11.5 mph - N/A   Mostly Cloudy
3:38 PM 82.4 °F 89.5 °F 75.2 °F 79% 30.10 in 7.0 mi SSW 8.1 mph - N/A Thunderstorm Thunderstorm
3:57 PM 82.0 °F 89.4 °F 75.9 °F 82% 30.10 in 6.0 mi SSW 11.5 mph - 0.00 in Rain , Thunderstorm Light Thunderstorms and Rain
4:07 PM 80.6 °F 85.4 °F 73.4 °F 79% 30.10 in 7.0 mi SSW 9.2 mph 18.4 mph 0.00 in   Mostly Cloudy
4:12 PM 80.6 °F 85.4 °F 73.4 °F 79% 30.10 in 8.0 mi SW 9.2 mph - 0.00 in   Scattered Clouds
4:57 PM 80.1 °F 84.5 °F 73.9 °F 81% 30.12 in 4.0 mi Calm Calm - 0.00 in Rain , Thunderstorm Light Thunderstorms and Rain
5:12 PM 78.8 °F - 73.4 °F 83% 30.11 in 5.0 mi Calm Calm - 0.00 in Rain Light Rain
5:40 PM 77.0 °F - 71.6 °F 83% 30.11 in 9.0 mi SE 8.1 mph - 0.01 in   Overcast
5:57 PM 77.0 °F - 72.0 °F 84% 30.12 in 8.0 mi SE 8.1 mph - 0.01 in   Mostly Cloudy
6:57 PM 79.0 °F - 72.0 °F 79% 30.13 in 8.0 mi Calm Calm - N/A   Clear
7:57 PM 78.1 °F - 72.0 °F 81% 30.14 in 9.0 mi Calm Calm - N/A   Clear
8:57 PM 75.9 °F - 71.1 °F 85% 30.16 in 10.0 mi Calm Calm - N/A   Clear
9:57 PM 75.0 °F - 71.1 °F 87% 30.16 in 9.0 mi Calm Calm - N/A   Clear
10:57 PM 75.0 °F - 71.1 °F 87% 30.16 in 9.0 mi WNW 3.5 mph - N/A   Clear
11:57 PM 75.9 °F - 72.0 °F 87% 30.17 in 9.0 mi Calm Calm - N/A   Clear